Temp
17 15 15 14 14 16 16 16 16 17 19 18 17 16 15 14 14 12 11 10 10 9 9 9 10 10 9 9 9 9 8 8 8 9 8 8 9 9 10 11 11 11 10 11
15 15 17 16 15 16 16 16 17 18 19 18 19 17 16 13 13 12 11 9 9 9 9 9 10 9 9 9 9 9 9 8 8 9 9 9 8 9 10 11 11 11 10 11
15 16 18 17 17 17 17 16 17 18 19 19 18 17 17 16 15 13 12 12 11 9 11 9 9 10 11 10 9 9 9 9 9 9 9 9 9 9 10 11 11 11 12 12
15 17 17 17 17 17 16 18 19 19 18 16 18 15 16 15 14 13 12 11 11 11 14 12 11 10 11 10 10 9 8 8 9 9 9 9 10 10 10 11 11 12 13 12
15 17 17 16 17 18 17 19 19 20 18 16 16 15 16 16 14 13 13 12 11 12 15 15 13 12 12 10 10 10 10 10 9 9 10 10 10 10 11 11 12 12 12 12
16 18 17 18 18 18 20 20 18 16 16 14 16 15 15 15 17 15 14 13 12 12 13 13 14 14 11 11 11 10 11 11 11 11 11 10 11 11 11 11 11 11 11 11
15 16 17 18 18 18 19 17 14 14 14 13 15 15 16 18 18 17 16 15 12 12 13 12 12 12 13 12 12 11 11 11 11 11 11 11 11 11 11 11 11 11 11 11
14 14 16 18 17 18 17 17 12 15 12 13 15 15 17 18 19 20 19 17 14 12 12 13 14 14 13 13 13 12 12 12 11 11 11 11 11 11 12 12 12 12 12 12
13 14 17 18 18 18 17 15 17 14 14 13 14 16 17 18 20 21 18 18 15 14 13 14 14 14 14 14 13 13 13 12 12 12 11 12 12 12 12 12 12 12 12 12
15 14 17 18 18 18 18 17 15 14 13 13 14 15 16 18 20 19 18 17 17 16 15 14 14 14 15 15 15 13 13 13 13 13 13 12 12 12 12 12 12 12 12 13
15 14 15 18 17 17 17 16 17 16 14 12 12 14 15 17 19 19 18 19 19 17 17 16 16 17 16 15 14 14 13 13 13 13 13 13 13 13 13 13 12 12 12 13
14 14 14 15 17 18 17 17 17 14 15 13 12 13 18 17 18 18 18 21 20 21 20 20 20 20 17 17 14 14 14 14 14 14 14 14 13 13 13 13 12 11 12 12
13 13 12 15 16 17 17 17 17 16 14 15 11 13 17 16 18 20 19 21 22 21 20 20 20 19 19 18 17 16 16 16 15 15 14 14 14 13 13 13 13 11 11 10
13 12 15 14 15 16 17 17 18 18 14 15 13 16 17 17 17 18 21 21 22 23 22 21 20 20 20 20 19 18 17 17 17 16 16 15 15 14 14 13 12 11 11 12
12 12 13 15 16 16 16 16 17 18 16 16 16 15 16 17 17 18 22 21 20 21 22 22 21 21 21 21 20 20 19 18 17 16 15 14 14 14 14 14 12 13 11 12
11 12 14 13 14 16 15 16 17 17 17 17 17 16 18 20 19 19 21 21 21 21 22 22 22 21 20 20 20 19 18 18 17 16 15 15 14 14 14 14 13 12 10 10
7 10 11 11 15 15 12 13 15 16 17 17 15 16 17 17 17 18 20 21 22 22 21 21 22 21 20 19 19 19 19 17 16 16 15 14 14 12 11 10 10 10 9 9
7 9 7 7 11 12 12 16 17 17 17 17 18 18 18 18 20 21 22 22 21 21 20 19 20 20 20 19 18 18 17 16 16 16 15 13 10 10 10 9 9 9 8 8
8 8 7 8 9 12 14 15 16 16 16 17 17 18 19 19 18 17 20 20 21 20 20 20 19 19 18 18 17 16 16 15 14 12 11 10 10 10 9 9 9 8 7 7
9 8 8 6 7 9 13 15 17 18 14 17 17 17 18 16 13 13 19 20 20 19 19 19 18 17 16 15 14 13 13 13 12 11 10 10 9 9 9 8 8 7 6 5
5 5 6 7 7 8 12 13 17 14 12 17 18 19 18 15 15 19 18 18 18 18 17 16 15 15 14 13 12 12 11 10 10 9 9 9 9 8 7 7 6 5 4 4
6 6 4 6 5 7 13 14 14 13 16 16 18 19 19 20 19 18 17 16 16 16 14 14 13 12 11 11 10 9 9 8 8 8 7 7 7 6 5 5 4 3 2 2
8 8 7 7 8 11 13 13 15 14 15 16 16 18 19 19 18 17 16 14 13 13 12 12 11 11 10 9 8 7 7 6 6 6 5 4 4 3 2 2 2 2 1 1
10 10 9 10 12 12 13 15 15 16 16 16 17 18 17 18 15 15 14 13 12 11 11 10 10 9 7 6 6 6 6 5 4 3 3 2 2 1 1 1 1 0 -1 -1
10 10 10 10 12 14 15 15 16 17 17 17 17 16 17 17 15 15 13 12 11 10 9 9 8 7 6 5 4 4 4 4 3 2 2 1 1 0 -0 -1 -2 -2 -3 -3
10 9 8 9 13 13 15 16 17 17 17 16 17 16 16 17 17 14 12 11 10 9 8 7 6 6 4 4 4 3 3 3 3 2 1 -0 -1 -1 -2 -4 -5 -5 -6 -5
Height
1476 1482 1477 1475 1480 1480 1485 1486 1485 1472 1460 1466 1466 1464 1461 1464 1465 1466 1468 1468 1474 1477 1477 1476 1475 1476 1479 1483 1486 1489 1492 1496 1501 1503 1507 1509 1514 1518 1522 1527 1533 1537 1542 1544
1479 1474 1462 1468 1474 1480 1482 1484 1479 1467 1455 1460 1458 1461 1457 1460 1459 1459 1461 1465 1467 1474 1474 1476 1473 1477 1478 1481 1484 1487 1491 1493 1499 1500 1504 1508 1512 1516 1523 1527 1531 1535 1538 1540
1469 1460 1459 1465 1467 1476 1475 1479 1475 1467 1456 1454 1457 1463 1458 1457 1459 1464 1464 1463 1465 1465 1464 1471 1475 1476 1477 1480 1483 1485 1488 1493 1497 1501 1504 1510 1513 1519 1523 1523 1527 1531 1535 1537
1463 1455 1460 1464 1461 1468 1476 1461 1459 1460 1464 1476 1456 1481 1460 1455 1458 1460 1460 1461 1462 1465 1464 1467 1470 1472 1477 1481 1484 1487 1490 1493 1497 1501 1506 1509 1511 1513 1518 1521 1525 1527 1531 1534
1449 1449 1455 1459 1452 1455 1463 1456 1454 1453 1459 1465 1466 1475 1457 1454 1461 1459 1456 1457 1458 1461 1462 1464 1467 1471 1475 1480 1483 1487 1489 1494 1497 1501 1505 1506 1510 1514 1517 1522 1523 1525 1528 1529
1447 1444 1447 1448 1445 1449 1450 1449 1454 1459 1464 1481 1470 1472 1462 1456 1443 1447 1451 1453 1454 1457 1460 1464 1468 1472 1474 1478 1482 1485 1488 1493 1496 1500 1503 1505 1507 1511 1515 1516 1516 1520 1522 1524
1449 1443 1442 1443 1447 1443 1447 1456 1480 1486 1483 1487 1467 1467 1453 1435 1431 1430 1437 1442 1447 1451 1456 1460 1463 1465 1468 1470 1475 1479 1483 1486 1491 1495 1498 1500 1502 1506 1507 1509 1511 1513 1515 1517
1450 1453 1438 1432 1438 1443 1446 1450 1479 1484 1492 1480 1463 1465 1447 1430 1423 1424 1427 1431 1438 1446 1449 1451 1453 1457 1461 1465 1468 1472 1475 1480 1483 1486 1489 1493 1497 1498 1499 1501 1504 1506 1508 1510
1445 1439 1423 1423 1429 1434 1441 1450 1441 1465 1466 1478 1466 1450 1433 1423 1420 1418 1423 1428 1435 1438 1441 1443 1448 1451 1454 1457 1459 1461 1466 1470 1475 1478 1483 1485 1489 1491 1492 1494 1497 1500 1503 1504
1428 1438 1420 1419 1421 1423 1427 1427 1454 1458 1476 1478 1465 1457 1448 1430 1421 1420 1424 1424 1427 1429 1434 1439 1444 1446 1448 1450 1453 1459 1463 1463 1466 1472 1476 1478 1481 1484 1486 1489 1489 1492 1495 1497
1424 1430 1430 1417 1419 1425 1427 1429 1430 1438 1452 1470 1477 1460 1429 1423 1419 1419 1418 1417 1419 1424 1428 1432 1436 1439 1441 1445 1450 1452 1458 1461 1465 1467 1469 1471 1474 1477 1481 1482 1482 1484 1488 1490
1416 1422 1433 1421 1410 1410 1416 1417 1420 1445 1449 1450 1461 1456 1418 1418 1418 1417 1419 1416 1417 1417 1421 1425 1428 1431 1433 1437 1443 1445 1447 1452 1456 1460 1462 1464 1468 1471 1474 1475 1475 1478 1481 1485
1410 1416 1434 1423 1417 1409 1413 1412 1413 1419 1431 1439 1465 1452 1417 1417 1415 1413 1414 1413 1414 1416 1417 1419 1424 1427 1429 1431 1433 1436 1440 1441 1448 1452 1456 1457 1460 1464 1467 1467 1465 1470 1476 1474
1406 1407 1406 1413 1410 1407 1411 1409 1407 1414 1432 1434 1440 1432 1421 1417 1416 1414 1412 1413 1413 1413 1415 1417 1420 1422 1424 1426 1427 1430 1432 1436 1440 1444 1447 1450 1454 1456 1457 1457 1462 1465 1468 1470
1411 1408 1403 1401 1402 1405 1408 1409 1407 1407 1411 1422 1421 1424 1417 1411 1409 1406 1406 1408 1411 1411 1413 1414 1416 1418 1420 1421 1424 1426 1428 1431 1434 1436 1440 1444 1447 1451 1452 1453 1454 1458 1462 1463
1412 1406 1399 1404 1403 1404 1412 1410 1404 1403 1404 1405 1407 1412 1400 1397 1399 1402 1401 1400 1403 1406 1408 1409 1412 1414 1416 1418 1420 1421 1423 1426 1429 1432 1435 1439 1441 1443 1445 1447 1448 1449 1453 1455
1426 1413 1407 1412 1401 1404 1419 1407 1402 1398 1397 1401 1412 1402 1393 1396 1395 1396 1395 1398 1399 1402 1405 1407 1407 1409 1411 1414 1415 1416 1419 1421 1425 1429 1432 1434 1435 1437 1440 1444 1446 1447 1450 1453
1425 1419 1416 1422 1410 1417 1399 1393 1392 1391 1391 1394 1392 1390 1389 1390 1388 1391 1392 1393 1396 1399 1402 1405 1406 1407 1408 1411 1413 1415 1416 1418 1422 1425 1428 1430 1433 1436 1439 1440 1442 1445 1446 1447
1415 1417 1421 1420 1419 1399 1389 1388 1388 1390 1393 1384 1387 1386 1385 1389 1389 1390 1390 1393 1395 1398 1401 1403 1405 1406 1408 1409 1411 1413 1415 1417 1420 1423 1426 1429 1431 1433 1436 1437 1438 1440 1441 1444
1405 1407 1417 1424 1425 1415 1391 1380 1376 1376 1398 1378 1381 1382 1382 1386 1401 1393 1390 1392 1396 1398 1400 1402 1403 1405 1407 1408 1411 1414 1416 1417 1420 1422 1424 1427 1429 1430 1431 1433 1436 1438 1440 1442
1413 1415 1419 1418 1421 1411 1382 1383 1375 1396 1401 1376 1374 1377 1379 1383 1383 1382 1387 1391 1394 1396 1398 1400 1402 1405 1407 1409 1412 1413 1415 1417 1419 1422 1424 1426 1428 1430 1432 1434 1435 1436 1438 1441
1413 1417 1426 1422 1427 1420 1382 1379 1384 1385 1377 1375 1375 1375 1377 1377 1379 1382 1386 1389 1391 1394 1397 1400 1402 1405 1408 1410 1412 1413 1415 1417 1419 1421 1423 1425 1427 1429 1431 1433 1435 1437 1439 1442
1405 1401 1404 1403 1398 1379 1377 1377 1377 1379 1378 1374 1373 1374 1372 1373 1377 1380 1385 1389 1391 1395 1397 1400 1403 1406 1408 1410 1412 1413 1415 1417 1420 1421 1423 1425 1426 1429 1431 1435 1438 1440 1441 1443
1384 1384 1389 1389 1379 1375 1372 1374 1376 1376 1376 1373 1373 1374 1375 1375 1378 1380 1386 1389 1392 1395 1397 1400 1402 1404 1407 1410 1412 1414 1415 1418 1420 1421 1424 1426 1428 1430 1433 1436 1439 1441 1443 1444
1381 1380 1382 1381 1375 1370 1368 1368 1369 1369 1369 1372 1372 1374 1375 1376 1378 1382 1385 1390 1392 1394 1397 1400 1400 1402 1406 1409 1411 1414 1416 1418 1421 1424 1427 1429 1431 1434 1435 1437 1439 1440 1441 1443
1376 1376 1382 1380 1365 1367 1363 1363 1364 1363 1365 1366 1368 1374 1374 1376 1377 1381 1385 1389 1391 1393 1396 1398 1400 1403 1406 1409 1411 1415 1419 1422 1424 1426 1428 1431 1432 1434 1435 1435 1437 1439 1442 1444
Wind_Speed
6 4 14 12 10 12 9 10 12 10 12 6 7 9 9 15 14 14 16 14 14 14 15 14 14 15 17 19 18 23 32 32 38 37 39 43 41 38 36 33 30 30 26 23
5 16 16 9 7 11 14 15 17 12 7 6 5 10 7 12 20 29 28 21 19 19 18 18 15 18 20 21 22 23 27 31 36 35 35 41 37 38 34 34 33 29 27 21
14 9 15 12 12 13 17 15 15 8 5 4 4 5 4 6 11 15 19 25 25 26 22 23 27 23 19 21 25 27 28 33 32 31 34 35 36 34 36 35 32 31 33 27
11 17 15 10 15 14 13 12 7 5 2 2 2 5 4 5 9 14 21 26 29 27 22 23 27 25 28 27 27 32 33 32 33 33 37 35 38 36 36 37 34 35 31 28
10 15 17 18 19 12 14 19 6 4 3 3 6 1 6 8 8 13 18 27 34 34 31 30 30 30 34 34 36 33 32 33 36 36 36 33 36 37 34 36 35 33 31 29
11 16 7 12 11 15 19 4 4 4 2 2 3 1 6 5 10 19 21 29 37 41 37 35 32 32 37 40 39 37 35 34 35 38 37 37 36 37 37 36 33 34 32 32
7 19 13 6 5 8 6 5 1 3 2 5 3 3 8 10 6 19 24 34 39 44 45 42 41 41 42 46 44 43 39 37 36 36 36 37 37 35 33 32 33 33 36 38
13 9 16 10 17 6 8 9 6 6 4 4 4 5 6 5 17 18 29 37 40 40 45 48 47 45 45 47 47 45 43 40 39 38 37 38 37 36 33 33 34 34 34 36
7 15 5 18 12 8 7 5 9 6 0 3 3 5 8 6 4 2 13 27 32 40 45 49 47 46 47 47 50 50 47 43 41 41 39 38 38 40 39 38 39 37 34 33
5 4 12 12 9 13 13 8 4 1 7 4 4 5 5 5 4 4 6 21 32 42 44 45 46 47 47 47 47 50 49 48 46 43 41 40 40 39 42 41 42 43 39 36
17 2 5 2 7 10 3 4 3 6 6 6 3 6 6 9 4 5 7 22 36 36 41 45 46 46 47 48 47 47 48 50 49 47 45 44 43 44 44 47 46 46 43 38
11 11 13 15 6 3 4 10 10 5 5 3 5 6 4 9 8 9 9 14 21 30 34 36 36 33 44 48 47 48 47 47 48 44 46 46 46 45 45 45 51 50 42 36
7 9 3 11 7 5 5 5 6 5 5 9 6 5 5 6 9 13 10 12 20 21 26 31 32 33 34 38 44 48 48 46 45 44 45 46 47 47 47 47 47 42 22 36
11 6 21 17 2 3 3 5 14 13 7 7 7 7 6 7 10 10 25 21 21 19 23 25 24 26 22 24 31 36 42 45 45 45 47 47 44 44 44 47 42 24 36 34
7 5 6 7 10 10 12 14 9 17 9 11 9 11 9 8 9 14 24 24 16 18 19 21 27 26 22 22 24 25 31 37 41 43 44 44 43 40 40 38 31 30 36 35
9 4 2 6 10 11 6 23 19 4 4 9 7 9 9 13 14 10 19 24 23 18 5 15 20 27 26 25 24 28 31 32 36 40 40 37 40 39 35 31 32 34 31 33
6 4 3 5 4 10 6 10 14 6 6 5 6 9 5 6 8 16 22 18 18 18 17 17 18 24 29 27 28 28 29 32 32 32 33 37 39 34 28 24 18 25 29 30
7 9 2 3 4 13 8 7 13 19 14 8 5 4 7 7 7 8 13 15 17 18 20 17 15 15 21 27 29 29 29 30 29 27 30 28 22 17 19 19 21 22 25 33
14 11 2 1 3 4 10 7 6 7 8 8 7 7 5 4 9 3 16 16 17 16 14 11 10 10 12 22 26 28 28 28 26 22 18 15 13 14 17 20 22 24 28 29
4 9 5 3 3 8 4 10 8 1 5 4 7 7 5 11 4 5 14 14 13 12 9 10 11 11 14 18 19 19 18 16 15 14 13 13 14 16 17 19 22 23 24 26
1 3 5 3 3 6 9 9 9 4 6 4 9 5 6 4 6 13 19 16 13 11 11 11 11 12 14 14 14 14 15 14 13 11 12 12 13 14 16 19 20 24 24 21
3 4 3 2 3 6 4 8 6 5 4 5 5 4 10 10 14 24 21 18 15 14 13 12 11 11 11 10 10 12 12 12 11 10 11 12 13 15 16 21 24 22 21 19
5 7 5 9 7 10 8 5 2 3 3 7 11 4 12 19 23 23 20 17 15 13 13 12 10 10 7 5 6 9 10 10 9 11 10 12 15 18 19 19 18 17 16 19
4 6 4 3 6 9 17 12 14 11 5 6 6 5 10 15 16 19 17 17 18 15 13 12 11 11 11 7 3 5 10 12 13 13 13 15 15 17 15 15 16 16 15 13
7 6 6 4 7 6 12 21 19 21 20 13 2 4 6 6 13 13 17 19 18 16 14 16 18 18 16 14 14 16 15 13 13 15 17 17 17 16 16 15 14 13 10 6
5 5 4 5 13 6 13 27 16 23 23 16 14 9 7 8 8 15 21 20 18 19 22 22 23 22 22 22 22 21 18 17 18 20 19 16 16 15 14 10 5 3 1 5
Wind_Direction
222 200 222 197 195 241 266 276 268 269 266 189 234 254 213 172 165 169 188 162 176 179 186 195 194 197 195 196 194 197 190 185 184 191 188 186 193 187 183 181 199 191 196 202
248 233 229 196 202 237 254 261 272 271 250 162 252 254 241 172 185 183 179 177 184 184 178 187 183 182 184 196 195 194 190 188 184 183 186 180 186 188 192 191 195 197 196 209
209 230 204 203 220 236 250 251 261 249 302 237 230 289 184 192 170 183 186 184 182 190 177 184 178 175 191 204 202 196 188 184 190 190 181 182 193 201 194 195 200 204 207 212
229 247 256 229 227 226 256 246 243 271 59 262 45 282 255 196 160 182 181 187 192 197 186 184 188 192 199 206 199 195 194 193 192 187 186 189 191 193 202 205 211 206 213 219
215 215 210 229 230 233 243 249 234 239 261 59 329 19 271 120 204 201 198 193 197 198 190 187 194 194 186 192 188 185 184 187 186 188 188 189 195 199 199 204 214 222 224 229
225 254 189 216 228 230 242 212 53 38 72 329 334 161 276 205 208 201 205 200 195 198 197 195 191 189 190 190 189 189 188 189 188 191 193 197 203 208 214 218 222 227 229 229
251 244 252 248 271 264 195 116 264 332 345 232 280 274 242 272 238 192 197 202 199 199 196 198 197 196 193 193 193 195 196 197 199 205 210 213 215 216 220 223 226 229 226 225
211 240 213 209 211 222 201 174 155 209 201 247 272 243 249 215 278 210 205 198 197 196 200 204 204 202 200 199 199 200 203 205 206 210 214 217 220 222 225 228 233 232 233 235
192 235 251 216 212 205 222 173 185 124 34 102 251 291 291 311 347 111 194 187 190 200 205 211 211 210 209 208 209 209 210 212 215 216 217 220 224 227 230 231 233 237 240 238
232 287 224 234 185 231 197 165 94 325 164 197 269 249 236 278 215 299 200 187 196 204 208 213 214 218 218 219 218 218 220 220 219 221 221 222 225 231 235 236 237 240 241 243
219 170 285 201 208 205 181 164 131 144 149 165 206 262 219 203 254 224 219 184 200 203 210 216 224 227 228 226 222 224 224 226 225 225 229 230 230 232 237 238 240 240 243 245
203 213 238 245 265 241 276 208 175 161 208 168 166 263 239 188 211 246 260 205 191 196 208 217 223 229 231 232 228 229 231 230 230 232 233 237 238 239 241 248 240 238 241 252
193 213 167 241 261 209 198 215 209 149 122 194 165 252 247 219 309 277 241 265 211 200 198 204 212 218 226 232 234 235 237 241 236 235 236 240 242 243 247 250 252 240 248 238
271 170 211 224 235 148 183 274 219 193 196 189 195 222 262 231 216 243 255 244 204 215 206 204 198 199 203 217 230 235 238 241 243 241 242 243 245 248 249 248 248 240 253 244
276 232 194 233 220 263 269 272 265 211 194 195 215 205 217 239 242 242 236 225 212 201 206 214 213 207 210 213 212 222 233 238 241 240 239 241 247 248 250 266 247 247 242 247
306 273 176 210 214 234 225 265 253 245 229 213 200 217 216 231 250 252 225 205 206 204 208 235 221 213 211 213 214 217 222 226 233 237 238 240 239 247 252 247 243 246 242 221
293 297 146 245 207 225 229 229 273 233 234 191 204 222 215 253 234 226 216 219 217 210 191 184 199 211 218 213 214 215 217 223 225 227 230 231 235 241 241 238 252 240 220 230
265 301 28 197 107 227 234 260 254 236 235 215 205 194 173 221 199 225 209 196 195 200 185 186 192 203 212 213 211 212 213 214 216 223 224 228 235 237 241 247 225 235 242 221
201 233 52 81 244 306 192 239 192 177 246 188 192 206 183 148 131 95 160 168 168 173 186 206 226 234 226 211 207 205 206 206 213 219 226 228 223 232 238 236 240 234 213 201
180 175 150 128 240 224 210 243 270 149 239 221 174 188 182 144 126 233 175 166 174 184 207 222 222 227 213 207 204 203 206 214 217 219 218 225 237 243 237 230 221 208 201 197
47 84 163 109 269 291 262 277 231 189 228 284 183 160 141 163 205 200 168 169 175 179 192 205 209 206 202 202 205 211 214 210 211 218 232 232 229 232 227 219 207 195 193 196
303 149 181 119 158 256 250 303 154 217 347 20 299 247 191 166 152 160 170 170 177 178 182 192 191 190 193 203 214 216 213 220 211 202 218 220 223 217 201 193 186 188 192 199
189 205 184 183 207 220 236 222 330 313 279 39 32 288 217 176 168 168 172 172 175 175 170 174 184 182 187 197 212 214 195 193 202 197 193 177 173 176 179 182 187 194 205 212
248 165 214 135 239 234 241 221 224 266 281 4 55 41 193 176 175 166 169 166 159 161 166 173 177 165 162 171 188 203 185 180 175 173 178 176 178 174 180 187 185 184 181 188
218 147 212 243 285 298 304 243 243 257 282 264 13 202 156 175 176 175 166 159 157 162 163 172 176 171 164 168 158 164 175 180 177 173 167 166 169 166 165 165 157 171 191 215
205 195 168 220 233 220 239 254 227 237 258 279 240 221 221 252 231 177 156 160 163 165 172 169 162 164 156 162 156 155 165 180 178 169 162 158 161 158 155 159 154 107 339 280